Location: Beacon Field Observatory
(38.7700°N, 77.0829°W)
Time: 06:20:29
(UTC-05:00)

UKube-1 - Pass Details

Date: 14 December 2019
Orbit: 614 x 618 km, 98.5° (Epoch: 18 January)

Event Time Altitude Azimuth Distance (km) Brightness Sun altitude
Rises 05:26:21 0° 189° (S) 2,866 ? -21.1°
Reaches altitude 10° 05:28:43 10° 200° (SSW) 1,966 ? -20.7°
Enters shadow 05:30:28 21° 217° (SW) 1,399 ? -20.3°
